TimeEST,TemperatureF,Dew PointF,Humidity,Sea Level PressureIn,VisibilityMPH,Wind Direction,Wind SpeedMPH,Gust SpeedMPH,PrecipitationIn,Events,Conditions,WindDirDegrees,DateUTC
12:15 AM,64.8,49.8,58,30.08,10.0,SSW,10.4,-,N/A,,Overcast,210,2012-12-05 05:15:00
12:35 AM,64.8,50.0,59,30.07,10.0,SSW,8.1,-,N/A,,Overcast,210,2012-12-05 05:35:00
12:55 AM,64.6,50.2,60,30.07,10.0,SW,8.1,-,N/A,,Overcast,220,2012-12-05 05:55:00
1:15 AM,64.6,50.2,60,30.07,10.0,SW,9.2,16.1,N/A,,Mostly Cloudy,230,2012-12-05 06:15:00
1:35 AM,64.6,50.4,60,30.06,10.0,SW,9.2,-,N/A,,Scattered Clouds,230,2012-12-05 06:35:00
1:55 AM,63.7,50.0,61,30.06,10.0,SW,6.9,-,N/A,,Clear,230,2012-12-05 06:55:00
2:15 AM,63.7,50.0,61,30.06,10.0,SW,6.9,-,N/A,,Clear,220,2012-12-05 07:15:00
2:55 AM,64.0,50.2,61,30.05,10.0,SW,5.8,-,N/A,,Scattered Clouds,220,2012-12-05 07:55:00
3:15 AM,63.9,50.4,61,30.06,10.0,SW,9.2,-,N/A,,Mostly Cloudy,220,2012-12-05 08:15:00
3:35 AM,63.5,50.5,63,30.05,10.0,SW,6.9,-,N/A,,Scattered Clouds,230,2012-12-05 08:35:00
3:55 AM,63.0,50.5,64,30.05,10.0,SW,5.8,-,N/A,,Scattered Clouds,230,2012-12-05 08:55:00
4:15 AM,63.0,51.1,65,30.05,10.0,SW,3.5,-,N/A,,Mostly Cloudy,230,2012-12-05 09:15:00
4:35 AM,61.3,50.5,68,30.07,10.0,NNW,8.1,16.1,N/A,,Scattered Clouds,330,2012-12-05 09:35:00
4:55 AM,60.6,50.0,68,30.08,10.0,NW,8.1,-,N/A,,Clear,310,2012-12-05 09:55:00
5:15 AM,59.0,49.6,71,30.09,10.0,NW,5.8,-,N/A,,Scattered Clouds,320,2012-12-05 10:15:00
5:35 AM,60.4,49.1,66,30.10,10.0,NNW,16.1,19.6,N/A,,Scattered Clouds,340,2012-12-05 10:35:00
5:55 AM,59.5,46.4,62,30.11,10.0,NNW,11.5,23.0,N/A,,Scattered Clouds,340,2012-12-05 10:55:00
6:15 AM,58.8,45.3,61,30.13,10.0,NNW,16.1,19.6,N/A,Rain,Light Rain,340,2012-12-05 11:15:00
6:35 AM,57.6,45.0,63,30.14,10.0,NNW,9.2,-,N/A,Rain,Light Rain,340,2012-12-05 11:35:00
6:55 AM,56.3,45.3,67,30.15,10.0,NNW,8.1,-,N/A,Rain,Light Rain,330,2012-12-05 11:55:00
7:15 AM,54.5,46.0,73,30.16,10.0,NNW,8.1,-,N/A,Rain,Light Rain,330,2012-12-05 12:15:00
7:35 AM,54.1,46.0,74,30.17,10.0,NNW,8.1,-,N/A,Rain,Light Rain,340,2012-12-05 12:35:00
7:55 AM,54.0,45.9,74,30.18,10.0,NNW,6.9,-,N/A,Rain,Light Rain,340,2012-12-05 12:55:00
9:35 AM,54.9,36.0,49,30.20,10.0,NNW,13.8,19.6,N/A,,Overcast,340,2012-12-05 14:35:00
9:55 AM,55.0,36.0,49,30.20,10.0,NNW,11.5,-,N/A,,Overcast,330,2012-12-05 14:55:00
10:15 AM,55.0,35.4,48,30.21,10.0,NNW,10.4,-,N/A,,Mostly Cloudy,330,2012-12-05 15:15:00
10:35 AM,55.6,36.0,48,30.21,10.0,NW,12.7,19.6,N/A,,Scattered Clouds,320,2012-12-05 15:35:00
10:55 AM,56.3,35.4,46,30.20,10.0,NNW,12.7,-,N/A,,Clear,330,2012-12-05 15:55:00
11:15 AM,56.7,34.7,44,30.20,10.0,WNW,10.4,-,N/A,,Clear,300,2012-12-05 16:15:00
11:35 AM,57.2,34.7,43,30.20,10.0,NW,12.7,16.1,N/A,,Clear,310,2012-12-05 16:35:00
11:55 AM,57.4,34.0,41,30.20,10.0,NNW,9.2,-,N/A,,Clear,330,2012-12-05 16:55:00
12:15 PM,57.2,33.4,41,30.19,10.0,NW,8.1,-,N/A,,Clear,310,2012-12-05 17:15:00
12:35 PM,57.4,32.9,40,30.18,10.0,NW,10.4,-,N/A,,Clear,320,2012-12-05 17:35:00
12:55 PM,57.6,32.2,38,30.18,10.0,WNW,8.1,-,N/A,,Clear,290,2012-12-05 17:55:00
1:15 PM,57.9,32.4,38,30.17,10.0,NW,6.9,-,N/A,,Clear,310,2012-12-05 18:15:00
1:35 PM,59.0,31.6,36,30.18,10.0,NW,12.7,17.3,N/A,,Clear,310,2012-12-05 18:35:00
1:55 PM,60.4,31.6,34,30.17,10.0,WNW,10.4,16.1,N/A,,Clear,290,2012-12-05 18:55:00
2:15 PM,61.2,31.5,33,30.17,10.0,West,10.4,-,N/A,,Clear,280,2012-12-05 19:15:00
2:35 PM,61.7,30.7,31,30.16,10.0,West,11.5,17.3,N/A,,Clear,280,2012-12-05 19:35:00
2:55 PM,61.3,30.0,31,30.16,10.0,WNW,6.9,-,N/A,,Clear,300,2012-12-05 19:55:00
3:15 PM,61.2,30.4,31,30.17,10.0,NW,11.5,17.3,N/A,,Clear,310,2012-12-05 20:15:00
3:35 PM,61.0,29.8,31,30.17,10.0,NW,11.5,-,N/A,,Clear,320,2012-12-05 20:35:00
3:55 PM,59.9,29.5,32,30.18,10.0,NW,10.4,-,N/A,,Clear,320,2012-12-05 20:55:00
4:15 PM,57.7,30.7,36,30.18,10.0,NNW,9.2,-,N/A,,Clear,330,2012-12-05 21:15:00
4:35 PM,55.8,30.4,38,30.18,10.0,NNW,11.5,-,N/A,,Clear,340,2012-12-05 21:35:00
4:55 PM,55.8,30.6,38,30.20,10.0,North,9.2,-,N/A,,Clear,350,2012-12-05 21:55:00
5:15 PM,54.1,30.2,40,30.20,10.0,North,8.1,-,N/A,,Clear,360,2012-12-05 22:15:00
5:35 PM,53.2,29.8,41,30.22,10.0,NNW,9.2,-,N/A,,Clear,340,2012-12-05 22:35:00
5:55 PM,53.1,29.8,41,30.23,10.0,North,8.1,-,N/A,,Clear,350,2012-12-05 22:55:00
6:15 PM,52.3,28.8,40,30.24,10.0,North,10.4,-,N/A,,Clear,350,2012-12-05 23:15:00
6:35 PM,51.6,29.1,42,30.25,10.0,North,8.1,-,N/A,,Clear,10,2012-12-05 23:35:00
6:55 PM,50.7,29.7,44,30.25,10.0,North,13.8,19.6,N/A,,Clear,350,2012-12-05 23:55:00
7:15 PM,50.4,29.7,45,30.26,10.0,North,15.0,20.7,N/A,,Clear,360,2012-12-06 00:15:00
7:35 PM,49.3,29.5,46,30.27,10.0,North,10.4,-,N/A,,Clear,350,2012-12-06 00:35:00
7:55 PM,48.7,30.0,48,30.28,10.0,NNW,12.7,20.7,N/A,,Clear,340,2012-12-06 00:55:00
8:15 PM,47.3,30.2,52,30.29,10.0,North,9.2,-,N/A,,Clear,350,2012-12-06 01:15:00
8:35 PM,46.2,30.0,53,30.30,10.0,NNW,11.5,16.1,N/A,,Clear,340,2012-12-06 01:35:00
8:55 PM,46.2,29.3,52,30.31,10.0,North,3.5,-,N/A,,Clear,10,2012-12-06 01:55:00
9:15 PM,44.6,29.8,56,30.31,10.0,North,10.4,-,N/A,,Clear,10,2012-12-06 02:15:00
9:35 PM,44.6,29.3,55,30.31,10.0,NNW,9.2,21.9,N/A,,Clear,340,2012-12-06 02:35:00
9:55 PM,43.7,28.8,56,30.32,10.0,NNW,12.7,16.1,N/A,,Clear,340,2012-12-06 02:55:00
10:15 PM,42.8,28.2,56,30.32,10.0,North,12.7,17.3,N/A,,Clear,350,2012-12-06 03:15:00
10:35 PM,42.3,27.7,56,30.33,10.0,North,13.8,17.3,N/A,,Clear,360,2012-12-06 03:35:00
10:55 PM,41.2,27.1,57,30.34,10.0,North,6.9,18.4,N/A,,Clear,360,2012-12-06 03:55:00
11:15 PM,41.0,26.8,57,30.34,10.0,North,9.2,16.1,N/A,,Clear,10,2012-12-06 04:15:00
11:35 PM,40.5,26.1,57,30.33,10.0,North,11.5,19.6,N/A,,Clear,360,2012-12-06 04:35:00
11:55 PM,40.1,25.5,56,30.33,10.0,North,9.2,-,N/A,,Clear,360,2012-12-06 04:55:00